Regional Weather Roundup
Issued by NWS Mt. Holly, NJ

Home | Current Version | Previous Version | Text Only | Print | Product List | Glossary On
Versions: 1 2 3 4 5 6 7 8 9 10 11 12 13 14 15 16 17 18 19 20 21 22 23 24 25 26 27 28 29 30 31 32 33 34 35 36 37 38 39 40 41 42 43 44 45 46 47 48 49 50
000
ASUS41 KPHI 291210
RWRPHI

REGIONAL WEATHER ROUNDUP
NATIONAL WEATHER SERVICE MOUNT HOLLY NJ
800 AM EDT FRI AUG 29 2014

NOTE:  "FAIR" INDICATES FEW OR NO CLOUDS BELOW 12,000 FEET WITH NO
SIGNIFICANT WEATHER AND/OR OBSTRUCTIONS TO VISIBILITY.

 * = STATION DOES NOT REPORT PRECIPITATION (E.G. RAIN, SNOW, ETC.)
        OR FOG.

NJZ015>026-291300-
SOUTHERN NEW JERSEY

CITY           SKY/WX    TMP DP  RH WIND       PRES   REMARKS
POMONA         SUNNY     58  52  80 N7        30.16R
6HR MIN TEMP:  53; 6HR MAX TEMP:  58;

RIO GRANDE*    SUNNY     63  48  59 N10       30.17R
MILLVILLE      SUNNY     60  52  74 N5        30.17R
WRIGHTSTOWN    MOSUNNY   60  53  78 N5        30.15R
MOUNT HOLLY    MOSUNNY   60  53  77 CALM      30.18R
TRENTON        MOSUNNY   59  52  77 NW5       30.18R
6HR MIN TEMP:  56; 6HR MAX TEMP:  61;


$$
NJZ001>014-291300-
NORTHERN NEW JERSEY

CITY           SKY/WX    TMP DP  RH WIND       PRES   REMARKS
SUSSEX         LGT RAIN  56  52  86 CALM      30.19R
ANDOVER*         N/A     53  52  96 CALM      30.20R
MORRISTOWN     PTSUNNY   59  54  82 CALM      30.18R
NEWARK         PTSUNNY   66  50  56 N3        30.17R
TETERBORO      MOSUNNY   64  51  62 NW5       30.16R
CALDWELL       MOSUNNY   60  52  74 CALM      30.18R
SOMERVILLE     MOSUNNY   56  52  86 CALM      30.17R
ALLAIRE*       PTSUNNY   61  50  67 NW5       30.17R
TOMS RIVER*    MOSUNNY   57  52  82 N3        30.17R

$$
PAZ043-044-047-054-055-060>062-066>071-291300-
EASTERN PENNSYLVANIA

CITY           SKY/WX    TMP DP  RH WIND       PRES   REMARKS
PHILADELPHIA   PTSUNNY   64  51  62 N6        30.18R
6HR MIN TEMP:  61; 6HR MAX TEMP:  66;

NORTH PHILA    MOSUNNY   62  50  64 N7        30.19R
BLUE BELL      MOSUNNY   59  52  77 CALM      30.18R
DOYLESTOWN     MOSUNNY   58  52  80 N3        30.18R
QUAKERTOWN*    MOSUNNY   55  52  88 CALM      30.20R
POTTSTOWN      MOSUNNY   57  51  80 NW5       30.21R
LANCASTER      MOSUNNY   54  50  86 W5        30.21R
COATESVILLE    MOSUNNY   59  55  88 N3        30.20R
READING        MOSUNNY   58  52  80 CALM      30.19R
6HR MIN TEMP:  53; 6HR MAX TEMP:  59;

ALLENTOWN      MOSUNNY   57  51  80 CALM      30.20R
6HR MIN TEMP:  51; 6HR MAX TEMP:  59;

MOUNT POCONO   MOSUNNY   53  48  83 NW3       30.21R
6HR MIN TEMP:  47; 6HR MAX TEMP:  53;

HAZLETON       MOSUNNY   50  48  93 CALM      30.25R
WILKES BARRE   MOSUNNY   53  49  86 CALM      30.21R

$$
DEZALL-MDZ008-012-015-019-020-291300-
DELAWARE AND EASTERN MARYLAND

CITY           SKY/WX    TMP DP  RH WIND       PRES   REMARKS
WILMINGTON     MOSUNNY   62  52  69 N6        30.19R
6HR MIN TEMP:  55; 6HR MAX TEMP:  62;

DOVER          SUNNY     60  56  85 N7        30.16R
GEORGETOWN     SUNNY     62  53  72 VRB5      30.18R
6HR MIN TEMP:  56; 6HR MAX TEMP:  65;

EASTON         MOSUNNY  N/A N/A N/A CALM      30.22R
PATUXENT       MOSUNNY   66  53  63 NE8       30.18R
OCEAN CITY     SUNNY     66  59  78 N3        30.15R
WALLOPS ISLAND MOSUNNY   66  56  70 N6        30.16R
CAMBRIDGE      SUNNY     63  52  67 N6        30.17R
SALISBURY      SUNNY     64  55  72 N5        30.16R

$$
PAZ001-021-NYZ056-072-MDZ011-DCZ001-291300-
OTHER NEARBY LOCATIONS

CITY           SKY/WX    TMP DP  RH WIND       PRES   REMARKS
HARRISBURG     PTSUNNY   60  53  77 NW6       30.20R
STATE COLLEGE  SUNNY     52  50  93 CALM      30.22S
WILLIAMSPORT   MOSUNNY   54  49  83 NW3       30.21S
BINGHAMTON     SUNNY     56  51  84 N3        30.21R
NEW YORK CITY  MOSUNNY   64  50  60 CALM      30.19R
BALTIMORE      MOSUNNY   62  51  67 CALM      30.19R
WASHINGTON DC  MOSUNNY   68  50  52 NE7       30.19R

$$


USA.gov is the U.S. government's official web portal to all federal, state and local government web resources and services.